Fort Payne, AL

9:39 AM CDT on September 27, 2016 (GMT -0500)
Fort Payne

Weather History for K4A9 - May, 2014

Change the Weather History Date:

Monday, May 12, 2014

  Actual Average (KRMG) Record (KRMG)
Temperature  
Mean Temperature 72 °F 67 °F  
Max Temperature 84 °F 80 °F 91 °F (2005)
Min Temperature 60 °F 54 °F 43 °F (1997)
Cooling Degree Days 7 3  
Month to date cooling degree days 29  
Year to date cooling degree days 62  
Growing Degree Days 22 (Base 50)    
Moisture  
Dew Point 60 °F    
Average Humidity 69    
Maximum Humidity 94    
Minimum Humidity 35    
Precipitation  
Precipitation 0.00 in 0.15 in 0.83 in (2002)
Month to date precipitation 1.72  
Year to date precipitation 20.41  
Sea Level Pressure  
Sea Level Pressure 30.13 in    
Wind  
Wind Speed 2 mph (SSW)    
Max Wind Speed 14 mph    
Max Gust Speed 18 mph    
Visibility 9 miles    
Events      
T = Trace of Precipitation, MM = Missing Value Source: NWS Daily Summary

Daily Weather History Graph

Daily Weather History Graph

Search for Another Location

Airport or City:

Trip Planner

Search our weather history database for the weather conditions in past years. The results will help you decide how hot, cold, wet, or windy it might be!

Date:

Astronomy

May. 12, 2014 Rise Set
Actual Time 5:42 AM CDT 7:36 PM CDT
Civil Twilight 5:15 AM CDT 8:03 PM CDT
Nautical Twilight 4:41 AM CDT 8:37 PM CDT
Astronomical Twilight 4:06 AM CDT 9:13 PM CDT
Moon 5:38 PM CDT (5/12) 4:14 AM CDT (5/12)
Length of Visible Light 14h 48m
Length of Day
13h 53m
Waxing Gibbous, 95% of the Moon is Illuminated
May 12
Waxing Gibbous
May 14
Full
May 21
Last Quarter
May 28
New
Jun 5
First Quarter

Hourly Weather History & Observations

Time (CDT) Temp. Heat Index Dew Point Humidity Pressure Visibility Wind Dir Wind Speed Gust Speed Precip Events Conditions
12:15 AM 66.2 °F - 62.6 °F 88% 30.10 in 7.0 mi Calm Calm - N/A   Clear
12:35 AM 66.2 °F - 62.6 °F 88% 30.10 in 7.0 mi Calm Calm - N/A   Clear
12:55 AM 64.4 °F - 62.6 °F 94% 30.10 in 7.0 mi Calm Calm - N/A   Clear
1:15 AM 64.4 °F - 62.6 °F 94% 30.10 in 7.0 mi Calm Calm - N/A   Clear
1:35 AM 64.4 °F - 62.6 °F 94% 30.10 in 7.0 mi Calm Calm - N/A   Clear
1:55 AM 64.4 °F - 60.8 °F 88% 30.10 in 7.0 mi Calm Calm - N/A   Clear
2:15 AM 62.6 °F - 60.8 °F 94% 30.10 in 5.0 mi Calm Calm - N/A   Clear
2:35 AM 64.4 °F - 60.8 °F 88% 30.10 in 7.0 mi Calm Calm - N/A   Clear
2:55 AM 62.6 °F - 60.8 °F 94% 30.10 in 5.0 mi Calm Calm - N/A   Clear
3:15 AM 62.6 °F - 60.8 °F 94% 30.10 in 5.0 mi Calm Calm - N/A   Clear
3:35 AM 62.6 °F - 60.8 °F 94% 30.10 in 7.0 mi Calm Calm - N/A   Clear
3:55 AM 62.6 °F - 59.0 °F 88% 30.11 in 7.0 mi Calm Calm - N/A   Clear
4:15 AM 62.6 °F - 60.8 °F 94% 30.11 in 7.0 mi Calm Calm - N/A   Clear
4:35 AM 62.6 °F - 59.0 °F 88% 30.12 in 5.0 mi Calm Calm - N/A   Clear
4:55 AM 62.6 °F - 59.0 °F 88% 30.12 in 7.0 mi Calm Calm - N/A   Clear
5:15 AM 60.8 °F - 59.0 °F 94% 30.12 in 7.0 mi Calm Calm - N/A   Clear
5:35 AM 60.8 °F - 59.0 °F 94% 30.13 in 3.0 mi Calm Calm - N/A   Clear
5:55 AM 60.8 °F - 59.0 °F 94% 30.14 in 2.5 mi Calm Calm - N/A   Clear
6:15 AM 60.8 °F - 59.0 °F 94% 30.15 in 4.0 mi Calm Calm - N/A   Clear
6:35 AM 60.8 °F - 59.0 °F 94% 30.16 in 5.0 mi Calm Calm - N/A   Clear
6:55 AM 64.4 °F - 60.8 °F 88% 30.16 in 7.0 mi Calm Calm - N/A   Clear
7:15 AM 64.4 °F - 62.6 °F 94% 30.16 in 7.0 mi Calm Calm - N/A   Clear
7:35 AM 68.0 °F - 62.6 °F 83% 30.16 in 10.0 mi Calm Calm - N/A   Clear
7:55 AM 69.8 °F - 62.6 °F 78% 30.17 in 10.0 mi Calm Calm - N/A   Clear
8:15 AM 71.6 °F - 64.4 °F 78% 30.17 in 10.0 mi WSW 3.5 mph - N/A   Clear
8:35 AM 73.4 °F - 64.4 °F 73% 30.17 in 10.0 mi WSW 4.6 mph - N/A   Clear
8:55 AM 75.2 °F - 62.6 °F 65% 30.18 in 10.0 mi SW 6.9 mph - N/A   Clear
9:15 AM 77.0 °F - 62.6 °F 61% 30.18 in 10.0 mi SW 8.1 mph - N/A   Clear
9:35 AM 77.0 °F - 64.4 °F 65% 30.18 in 10.0 mi WSW 10.4 mph - N/A   Clear
9:55 AM 77.0 °F - 62.6 °F 61% 30.18 in 10.0 mi SW 10.4 mph - N/A   Scattered Clouds
10:15 AM 78.8 °F - 62.6 °F 57% 30.18 in 10.0 mi SSW 8.1 mph - N/A   Scattered Clouds
10:35 AM 78.8 °F - 60.8 °F 54% 30.18 in 10.0 mi SSW 9.2 mph - N/A   Scattered Clouds
10:55 AM 78.8 °F - 60.8 °F 54% 30.18 in 10.0 mi SW 11.5 mph - N/A   Scattered Clouds
11:15 AM 80.6 °F 81.5 °F 60.8 °F 51% 30.18 in 10.0 mi SW 11.5 mph - N/A   Scattered Clouds
11:35 AM 80.6 °F 81.1 °F 59.0 °F 48% 30.18 in 10.0 mi SW 13.8 mph - N/A   Scattered Clouds
11:55 AM 80.6 °F 81.5 °F 60.8 °F 51% 30.18 in 10.0 mi South 9.2 mph 16.1 mph N/A   Scattered Clouds
12:15 PM 80.6 °F 81.1 °F 59.0 °F 48% 30.18 in 10.0 mi South 6.9 mph - N/A   Scattered Clouds
12:35 PM 82.4 °F 82.5 °F 59.0 °F 45% 30.18 in 10.0 mi South 5.8 mph - N/A   Scattered Clouds
12:55 PM 82.4 °F 82.9 °F 60.8 °F 48% 30.17 in 10.0 mi South 6.9 mph 17.3 mph N/A   Scattered Clouds
1:15 PM 82.4 °F 82.5 °F 59.0 °F 45% 30.16 in 10.0 mi SSW 8.1 mph - N/A   Scattered Clouds
1:35 PM 82.4 °F 82.5 °F 59.0 °F 45% 30.16 in 10.0 mi South 8.1 mph - N/A   Scattered Clouds
1:55 PM 84.2 °F 83.0 °F 55.4 °F 37% 30.16 in 10.0 mi SW 9.2 mph - N/A   Scattered Clouds
2:35 PM 84.2 °F 83.0 °F 55.4 °F 37% 30.15 in 10.0 mi SW 9.2 mph - N/A   Scattered Clouds
2:55 PM 84.2 °F 83.0 °F 55.4 °F 37% 30.14 in 10.0 mi SW 11.5 mph 16.1 mph N/A   Scattered Clouds
3:15 PM 84.2 °F 83.0 °F 55.4 °F 37% 30.13 in 10.0 mi SW 6.9 mph - N/A   Scattered Clouds
3:35 PM 84.2 °F 83.5 °F 57.2 °F 40% 30.12 in 10.0 mi SW 8.1 mph - N/A   Scattered Clouds
3:55 PM 82.4 °F 81.7 °F 55.4 °F 39% 30.12 in 10.0 mi SSW 5.8 mph - N/A   Clear
4:15 PM 84.2 °F 82.8 °F 53.6 °F 35% 30.11 in 10.0 mi South 4.6 mph - N/A   Clear
4:35 PM 84.2 °F 82.8 °F 53.6 °F 35% 30.10 in 10.0 mi SW 11.5 mph - N/A   Mostly Cloudy
4:55 PM 82.4 °F 81.4 °F 53.6 °F 37% 30.10 in 10.0 mi South 4.6 mph - N/A   Scattered Clouds
5:15 PM 82.4 °F 81.7 °F 55.4 °F 39% 30.10 in 10.0 mi WSW 10.4 mph 18.4 mph N/A   Clear
5:35 PM 82.4 °F 81.7 °F 55.4 °F 39% 30.10 in 10.0 mi SSW 9.2 mph - N/A   Clear
5:55 PM 82.4 °F 82.0 °F 57.2 °F 42% 30.10 in 10.0 mi SSW 5.8 mph - N/A   Clear
6:15 PM 82.4 °F 82.0 °F 57.2 °F 42% 30.10 in 10.0 mi SSW 4.6 mph - N/A   Clear
6:35 PM 80.6 °F 81.1 °F 59.0 °F 48% 30.09 in 10.0 mi Calm Calm - N/A   Clear
6:55 PM 78.8 °F - 59.0 °F 51% 30.10 in 10.0 mi Calm Calm - N/A   Clear
7:15 PM 77.0 °F - 60.8 °F 57% 30.11 in 10.0 mi Calm Calm - N/A   Clear
7:35 PM 73.4 °F - 60.8 °F 65% 30.11 in 10.0 mi Calm Calm - N/A   Clear
7:55 PM 71.6 °F - 62.6 °F 73% 30.11 in 10.0 mi Calm Calm - N/A   Clear
8:15 PM 71.6 °F - 62.6 °F 73% 30.11 in 10.0 mi Calm Calm - N/A   Clear
8:35 PM 69.8 °F - 62.6 °F 78% 30.11 in 10.0 mi Calm Calm - N/A   Clear
8:55 PM 69.8 °F - 62.6 °F 78% 30.11 in 10.0 mi Calm Calm - N/A   Clear
9:15 PM 68.0 °F - 60.8 °F 78% 30.11 in 10.0 mi Calm Calm - N/A   Clear
9:35 PM 68.0 °F - 60.8 °F 78% 30.11 in 10.0 mi Calm Calm - N/A   Clear
9:55 PM 66.2 °F - 60.8 °F 83% 30.12 in 10.0 mi Calm Calm - N/A   Clear
10:15 PM 64.4 °F - 60.8 °F 88% 30.12 in 10.0 mi Calm Calm - N/A   Clear
10:35 PM 66.2 °F - 60.8 °F 83% 30.11 in 10.0 mi Calm Calm - N/A   Clear
10:55 PM 64.4 °F - 60.8 °F 88% 30.12 in 10.0 mi Calm Calm - N/A   Clear
11:15 PM 64.4 °F - 60.8 °F 88% 30.11 in 10.0 mi Calm Calm - N/A   Clear
11:35 PM 62.6 °F - 60.8 °F 94% 30.11 in 10.0 mi Calm Calm - N/A   Clear
11:55 PM 64.4 °F - 60.8 °F 88% 30.12 in 10.0 mi Calm Calm - N/A   Clear